Wetbulb
58.95 59.30 58.94 58.75 58.79 58.75 58.63 58.70 58.75 59.02 59.32 59.48 59.69 60.14 60.47 60.72 59.45 60.09 56.97 64.35 65.24 66.75 66.19 61.06 59.31 59.94 59.80 58.01 58.60 58.03 50.82 49.44 51.12 52.96 54.86 60.89 60.64 65.38 63.66 63.09 65.07 68.37 67.26 70.45 71.75
58.70 58.91 58.71 58.68 58.55 58.51 58.53 58.48 58.38 58.77 59.12 59.46 59.72 60.19 60.31 60.25 58.10 57.08 66.88 68.78 68.35 68.14 58.50 58.95 56.87 57.90 56.38 56.12 57.08 53.56 50.20 50.96 55.40 56.86 58.79 61.44 60.70 61.46 62.50 61.89 63.51 66.45 69.00 70.06 70.25
58.06 58.46 58.34 58.19 58.23 57.86 57.84 58.26 58.28 58.55 59.04 59.48 59.72 59.97 60.14 59.63 57.17 58.97 69.60 69.40 69.78 66.33 60.89 61.24 59.44 57.40 54.60 56.03 55.59 54.11 50.38 54.05 56.67 59.22 61.50 60.22 60.34 61.78 59.42 59.06 63.07 64.01 66.35 68.20 68.32
56.93 56.97 57.31 57.35 57.61 57.53 57.40 57.81 57.93 58.23 58.72 59.04 59.55 59.66 59.94 60.05 53.30 61.21 69.72 69.97 69.43 62.00 60.65 59.77 58.03 55.41 53.39 53.47 55.56 51.86 54.29 55.05 56.23 58.04 58.90 59.13 61.33 59.60 59.30 61.66 64.74 66.61 67.27 67.73 67.12
56.83 56.69 56.69 56.58 56.76 56.92 57.04 57.17 57.33 57.45 58.02 58.39 59.04 59.39 59.86 57.31 56.85 64.24 69.53 67.80 62.01 60.40 59.56 58.79 55.89 55.20 53.10 54.67 54.74 53.12 54.03 55.10 56.34 56.85 58.38 60.68 58.58 58.54 59.49 62.73 66.24 66.86 66.79 65.76 65.59
56.56 56.63 56.27 56.25 56.33 56.47 56.57 56.48 56.70 56.81 57.85 58.35 58.92 58.77 57.58 54.20 63.07 63.38 62.72 62.01 60.97 60.64 60.04 59.61 57.73 57.68 55.69 55.07 54.25 55.31 54.82 54.34 55.78 56.70 58.15 58.37 58.25 58.43 59.95 62.76 63.42 63.77 63.58 63.83 62.86
55.99 55.97 55.94 55.84 55.98 56.29 56.25 56.05 55.98 56.62 58.88 58.71 59.16 60.96 57.73 57.58 63.87 62.76 62.18 60.97 61.62 60.96 59.06 60.20 60.29 57.73 57.42 55.18 56.86 55.84 52.66 53.78 55.27 57.40 57.52 59.41 55.73 55.54 60.01 60.95 61.24 62.13 62.48 62.19 62.13
55.75 55.36 55.22 55.57 55.74 55.98 56.09 55.91 55.91 57.69 59.29 59.29 60.01 60.65 55.83 62.41 64.24 62.67 62.40 60.93 61.81 61.53 60.67 61.34 60.48 58.16 56.80 58.46 55.41 52.96 53.30 49.12 53.83 55.92 58.42 57.77 51.07 56.78 58.64 59.91 59.59 61.19 61.17 61.12 61.73
55.28 54.89 54.81 55.16 55.51 55.53 55.32 54.99 56.13 60.25 60.02 61.24 59.86 59.41 55.88 63.06 59.64 61.63 62.50 59.33 59.91 60.19 60.38 60.20 58.75 56.40 56.70 53.94 52.28 51.86 47.73 49.08 51.09 55.24 55.87 54.85 52.03 55.55 58.46 59.23 58.87 60.09 60.49 60.77 61.13
54.87 54.30 54.17 54.57 55.12 54.73 53.97 54.50 60.13 58.74 60.28 61.52 60.61 57.90 59.13 56.20 59.19 60.10 62.31 60.58 58.85 58.39 57.21 56.65 54.39 52.71 53.23 51.81 46.64 48.21 48.39 49.64 50.04 53.00 53.93 52.72 52.57 55.29 57.54 58.40 58.47 59.14 60.07 61.08 61.29
54.57 54.05 53.85 54.13 54.24 53.95 55.35 61.53 58.60 57.96 60.10 56.16 56.88 55.93 56.85 59.53 60.86 58.82 60.67 59.22 58.82 57.05 52.73 55.40 50.98 48.73 51.26 53.25 52.79 52.16 51.78 50.94 52.28 54.65 53.20 52.38 52.44 54.41 57.06 57.81 57.92 58.24 59.86 60.90 62.03
54.03 53.95 54.03 53.74 53.58 53.36 55.25 59.07 57.86 58.71 53.65 59.98 59.19 58.62 58.58 60.22 56.24 58.26 60.96 56.12 55.41 51.91 54.38 53.17 50.88 53.62 54.20 53.37 52.12 51.62 50.63 50.70 53.43 54.61 54.07 52.98 52.16 54.45 55.90 57.16 58.17 58.35 59.43 60.56 61.54
53.45 53.43 53.64 53.47 52.67 57.49 59.11 59.00 60.86 60.31 52.94 53.73 55.34 56.11 57.11 58.66 56.27 56.61 58.39 56.89 54.22 52.30 52.54 50.99 53.58 55.53 53.21 52.43 51.16 51.25 49.98 50.47 50.38 53.18 53.77 52.27 50.29 52.27 54.96 56.79 58.64 59.47 61.02 61.51 61.31
53.17 53.15 53.12 52.41 54.33 58.99 58.18 61.09 60.32 61.86 49.18 50.78 52.67 55.40 56.79 57.17 54.40 59.59 59.81 56.83 54.15 51.86 52.73 52.36 54.81 53.20 52.51 51.33 51.72 48.59 52.59 51.53 51.09 50.04 46.71 52.88 44.46 51.95 53.94 55.46 56.98 58.57 59.42 60.47 61.95
52.86 53.04 52.52 51.36 54.77 57.70 59.29 60.96 60.24 60.28 41.16 53.04 54.17 59.06 56.39 54.24 55.75 55.78 60.06 56.53 52.38 52.34 52.65 50.94 51.99 51.50 50.57 51.31 52.59 50.36 53.84 52.66 51.09 49.73 49.29 49.12 46.22 49.70 53.92 52.73 55.18 57.97 58.84 60.20 61.24
52.73 52.46 51.84 55.57 57.24 60.82 61.57 60.88 59.05 48.03 40.97 50.66 53.79 52.94 52.49 53.79 53.93 56.71 56.30 57.60 56.43 52.94 53.60 52.30 55.51 53.75 52.52 53.70 53.84 54.27 51.71 51.91 51.33 48.90 43.09 47.29 46.49 46.80 49.99 53.62 55.30 57.19 58.21 59.58 59.74
52.18 51.63 51.05 55.27 54.07 59.67 61.10 57.17 47.46 43.06 51.78 49.91 50.68 52.86 51.07 51.35 51.81 53.88 52.95 52.26 49.88 47.61 48.14 51.38 51.62 53.89 54.27 51.28 53.83 52.45 49.77 43.58 42.00 42.33 41.45 49.14 46.46 48.95 53.55 55.38 56.05 56.37 57.36 59.17 59.96
50.60 49.57 54.89 58.42 59.56 59.84 59.49 51.10 42.80 49.47 49.80 53.38 52.23 52.38 50.21 51.42 51.25 52.60 52.27 50.24 53.01 51.70 49.19 47.13 45.98 51.52 53.58 51.21 50.50 50.67 49.84 45.55 39.34 40.68 42.85 48.94 44.81 48.50 55.55 56.65 56.95 57.00 57.38 59.09 59.84
48.82 55.39 56.09 59.45 61.11 60.53 54.91 44.55 45.80 49.71 52.79 50.28 51.01 49.16 49.95 51.76 51.27 50.75 51.29 51.05 52.79 53.17 48.66 48.01 48.21 54.14 53.96 53.36 52.42 50.11 47.79 51.62 48.14 47.64 44.60 47.11 50.41 54.39 55.99 55.29 55.55 55.76 57.57 59.20 60.21
48.29 52.82 55.18 60.39 62.40 58.99 51.69 44.71 48.44 52.49 52.91 52.45 47.81 50.68 47.61 50.04 50.15 50.57 50.34 53.10 52.46 54.63 55.87 52.20 47.54 52.95 52.86 53.70 53.23 51.10 52.46 47.28 47.62 40.15 38.73 44.67 46.56 46.49 51.26 51.54 54.69 55.28 56.87 58.86 60.30
51.04 52.91 58.65 61.00 61.17 54.98 47.14 47.82 50.08 52.79 53.50 51.23 49.77 49.31 49.89 49.91 51.38 50.03 50.25 52.91 54.29 53.82 55.33 53.55 51.87 50.37 52.83 49.96 48.69 49.35 47.72 49.34 50.63 48.97 42.55 41.03 45.07 53.56 51.79 52.62 55.58 56.33 57.60 58.14 59.32
52.10 48.45 59.89 60.80 50.59 51.40 48.86 50.89 51.72 52.19 54.78 52.75 52.75 52.33 50.85 51.72 51.17 51.21 50.80 52.46 55.89 55.36 51.99 54.59 52.21 47.17 49.07 53.58 53.77 51.91 50.02 50.88 45.79 45.13 48.05 47.42 46.04 56.49 55.70 55.26 56.68 55.86 57.72 58.98 60.00
49.21 51.48 58.91 58.10 46.50 48.74 52.45 52.11 53.69 51.69 51.70 52.33 50.98 52.34 53.80 51.13 49.03 51.29 51.90 55.59 55.06 54.01 52.71 54.39 51.50 45.56 46.65 50.46 53.24 50.52 49.05 51.29 50.77 51.28 46.82 46.49 46.97 55.41 54.63 55.33 57.24 55.84 59.08 59.96 60.43
49.45 47.38 51.64 53.86 52.36 49.52 50.31 52.72 50.63 53.62 52.20 52.89 52.94 53.22 52.01 50.44 52.37 49.66 50.47 53.90 55.15 54.79 55.36 55.96 52.13 49.65 46.04 46.93 49.92 48.61 49.46 50.32 48.77 44.19 44.72 46.21 48.52 51.23 53.56 54.33 54.52 57.31 59.26 59.16 59.54
49.03 48.36 52.54 50.10 51.04 50.29 50.96 52.43 51.00 49.72 52.65 53.49 51.95 51.83 51.12 49.29 50.30 50.14 51.27 52.09 54.11 54.43 54.35 53.87 48.39 50.51 50.78 51.16 51.00 49.89 49.65 48.60 46.21 47.00 43.62 46.26 46.66 46.71 54.57 55.13 55.16 57.46 58.03 58.08 57.42
47.56 49.42 52.41 49.90 51.12 52.02 49.76 49.64 49.41 51.72 52.22 50.46 50.30 51.84 52.00 50.68 51.43 49.83 52.04 52.92 51.28 53.83 53.20 56.03 48.56 50.28 47.99 50.77 50.23 48.24 49.57 49.10 49.41 48.30 47.67 47.73 45.19 51.62 57.28 58.27 57.35 57.00 57.34 57.01 55.81
52.31 53.39 49.52 48.55 48.71 46.98 48.53 49.30 49.57 51.56 53.17 54.20 52.85 52.80 51.21 52.92 56.12 57.34 57.71 57.52 56.18 54.26 52.67 53.00 50.63 47.95 43.83 48.88 48.33 45.29 48.46 49.67 50.03 50.50 49.07 45.41 50.10 53.16 53.60 56.12 56.35 57.35 57.63 56.14 54.82
MSLP
1018.22 1017.71 1017.29 1016.87 1016.32 1015.86 1015.40 1014.97 1014.58 1014.31 1014.04 1013.81 1013.57 1013.30 1013.12 1012.97 1012.41 1012.01 1010.27 1008.42 1007.78 1008.57 1008.52 1007.89 1007.29 1006.80 1006.45 1005.71 1004.75 1004.08 1003.55 1001.51 999.74 998.50 998.52 999.66 1001.05 1002.81 1005.00 1004.74 1005.11 1005.72 1006.41 1007.74 1008.72
1018.36 1017.84 1017.37 1016.81 1016.29 1015.72 1015.27 1014.84 1014.43 1014.06 1013.87 1013.59 1013.30 1013.17 1013.09 1013.03 1011.94 1009.93 1007.99 1008.06 1008.32 1008.48 1008.21 1007.18 1006.35 1006.07 1005.53 1004.95 1004.13 1003.78 1002.61 1000.68 999.19 998.58 998.96 1000.39 1001.39 1002.11 1003.16 1004.18 1005.35 1006.70 1007.54 1008.04 1008.30
1018.46 1017.91 1017.40 1016.85 1016.32 1015.76 1015.17 1014.64 1014.25 1013.88 1013.56 1013.42 1013.21 1013.06 1013.06 1012.90 1010.72 1007.62 1007.94 1008.06 1008.27 1008.49 1008.08 1006.87 1005.56 1004.97 1004.68 1003.87 1003.06 1002.72 1001.87 1000.54 999.22 999.28 999.99 1002.51 1001.55 1001.92 1002.79 1003.36 1004.46 1006.21 1007.33 1007.71 1007.87
1018.65 1018.03 1017.45 1016.82 1016.20 1015.63 1015.06 1014.48 1014.01 1013.66 1013.39 1013.25 1013.13 1013.06 1012.98 1012.15 1008.82 1007.44 1007.89 1007.99 1008.31 1008.31 1007.72 1006.26 1005.49 1004.61 1003.99 1002.90 1002.37 1002.04 1001.45 1000.82 1000.15 999.97 1000.08 1000.44 1000.87 1001.80 1002.74 1003.74 1004.75 1005.71 1006.95 1007.32 1007.66
1018.69 1018.06 1017.42 1016.77 1016.10 1015.45 1014.83 1014.36 1013.91 1013.50 1013.23 1013.12 1013.10 1013.09 1012.88 1010.39 1007.35 1007.39 1007.86 1008.08 1008.20 1008.05 1006.97 1005.33 1004.72 1004.09 1003.15 1002.10 1001.94 1001.82 1001.36 1001.23 1000.83 1000.72 1000.63 1000.63 1001.41 1002.32 1002.93 1003.71 1004.91 1006.00 1006.94 1007.39 1007.60
1018.80 1018.14 1017.43 1016.68 1015.95 1015.35 1014.77 1014.24 1013.72 1013.31 1013.03 1012.90 1013.07 1013.26 1012.04 1008.44 1006.11 1006.93 1006.93 1007.41 1007.40 1006.93 1005.66 1004.77 1003.89 1003.38 1002.72 1001.98 1001.59 1001.68 1001.39 1001.58 1001.15 1001.36 1001.15 1001.24 1002.01 1002.94 1003.08 1004.04 1005.08 1006.28 1006.89 1007.29 1007.53
1018.85 1018.24 1017.50 1016.67 1015.90 1015.22 1014.60 1013.95 1013.45 1013.03 1012.70 1012.65 1012.87 1012.72 1010.05 1006.74 1005.35 1006.38 1006.44 1006.51 1006.28 1005.69 1005.08 1004.72 1004.21 1003.78 1003.09 1002.30 1001.98 1001.73 1001.78 1001.95 1001.64 1001.62 1001.54 1001.98 1002.41 1002.67 1003.44 1004.36 1005.12 1006.24 1006.88 1007.21 1007.60
1018.89 1018.18 1017.43 1016.60 1015.82 1015.02 1014.31 1013.63 1013.07 1012.64 1012.36 1012.48 1012.58 1011.84 1008.31 1005.34 1005.18 1005.57 1005.87 1005.84 1005.53 1005.59 1005.35 1005.01 1004.86 1004.45 1003.58 1002.55 1002.26 1002.27 1002.16 1001.73 1001.74 1001.99 1002.04 1002.82 1002.63 1002.53 1003.52 1004.38 1005.13 1006.09 1006.72 1007.12 1007.70
1018.89 1018.17 1017.34 1016.45 1015.60 1014.80 1013.95 1013.31 1012.56 1012.25 1012.13 1012.19 1012.08 1010.56 1006.66 1005.28 1005.22 1004.95 1005.35 1005.32 1005.35 1005.52 1005.48 1005.48 1005.58 1004.68 1003.77 1003.05 1002.59 1002.40 1001.82 1001.53 1001.20 1001.78 1002.27 1002.89 1002.92 1002.60 1002.95 1003.99 1004.97 1005.76 1006.40 1007.01 1007.62
1018.92 1018.10 1017.22 1016.22 1015.34 1014.65 1013.48 1012.75 1011.95 1011.96 1011.73 1010.87 1009.98 1008.91 1005.71 1004.54 1004.63 1004.69 1004.98 1005.12 1004.82 1005.16 1005.25 1005.38 1005.15 1004.54 1003.77 1002.96 1002.01 1001.53 1001.56 1001.15 1000.76 1001.27 1002.06 1002.52 1002.88 1002.83 1002.82 1003.70 1004.68 1005.27 1005.90 1006.44 1007.22
1018.96 1018.01 1017.11 1015.99 1014.90 1014.56 1013.31 1011.43 1011.76 1011.05 1009.73 1007.74 1006.39 1005.42 1003.80 1003.85 1004.00 1004.47 1004.69 1004.94 1004.96 1004.92 1004.85 1004.60 1004.39 1003.55 1003.09 1002.61 1002.05 1001.22 1000.66 1000.33 1000.38 1000.23 1001.26 1002.01 1002.43 1002.55 1002.59 1003.09 1003.89 1004.65 1005.17 1005.77 1006.42
1018.99 1018.07 1016.99 1015.81 1014.52 1013.60 1013.80 1010.76 1009.38 1009.04 1007.87 1006.23 1005.67 1004.43 1003.87 1003.85 1004.02 1004.14 1004.23 1004.74 1004.87 1004.59 1004.48 1004.11 1003.31 1002.84 1002.38 1002.17 1001.94 1001.62 1001.11 1000.62 1000.17 1000.18 1001.02 1001.70 1002.17 1002.15 1002.17 1002.36 1002.91 1003.72 1004.38 1004.90 1005.63
1018.95 1018.12 1017.06 1015.66 1014.06 1012.63 1010.90 1009.73 1008.97 1008.46 1007.36 1004.77 1003.83 1003.30 1003.25 1003.89 1003.70 1003.84 1004.06 1004.35 1004.30 1004.32 1003.74 1003.11 1001.98 1001.74 1001.96 1001.58 1001.89 1001.71 1001.53 1001.36 1001.01 1000.70 1001.49 1002.24 1002.39 1001.90 1001.66 1001.67 1001.85 1002.60 1003.40 1004.06 1004.70
1018.90 1018.06 1017.39 1015.85 1013.83 1011.80 1010.06 1009.49 1008.88 1008.79 1006.90 1003.08 1001.97 1001.85 1002.31 1003.06 1003.37 1003.20 1003.45 1003.91 1003.92 1003.54 1003.22 1002.57 1002.17 1002.02 1002.32 1002.37 1002.31 1002.05 1001.84 1001.70 1001.49 1001.50 1001.43 1001.98 1001.88 1001.44 1001.06 1000.67 1000.82 1001.59 1002.48 1003.34 1003.98
1019.05 1017.97 1017.28 1017.51 1015.14 1011.41 1010.26 1009.71 1009.26 1008.99 1005.71 1001.88 1001.43 1001.10 1001.59 1002.18 1001.98 1002.72 1002.95 1003.65 1003.30 1003.01 1003.12 1002.15 1001.86 1001.79 1002.33 1002.30 1002.33 1002.22 1002.36 1001.98 1002.30 1002.73 1002.71 1002.32 1002.04 1001.04 1000.72 999.95 1000.05 1000.87 1001.80 1002.57 1003.24
1019.04 1018.05 1017.46 1014.29 1014.30 1011.44 1010.06 1009.81 1009.49 1008.19 1004.11 1001.82 1001.26 1001.58 1001.46 1001.83 1002.20 1001.91 1002.73 1003.38 1003.31 1003.24 1002.78 1002.35 1001.75 1001.73 1001.90 1002.10 1002.19 1002.41 1003.15 1003.47 1003.80 1004.13 1003.65 1003.25 1002.76 1001.41 1000.47 1000.33 999.34 1000.39 1001.27 1002.03 1002.83
1018.47 1017.38 1017.33 1015.47 1012.20 1010.67 1010.48 1009.87 1008.65 1005.88 1002.52 1001.59 1001.15 1001.09 1001.29 1001.41 1001.96 1001.94 1002.58 1002.95 1003.06 1003.21 1002.72 1002.23 1001.88 1001.93 1002.38 1002.12 1002.02 1002.73 1003.56 1004.04 1004.15 1004.05 1003.36 1002.81 1002.37 1001.36 1000.96 1001.05 1001.11 1001.22 1001.51 1002.29 1003.07
1018.19 1016.31 1014.15 1013.07 1011.43 1011.10 1010.76 1009.67 1007.18 1003.90 1002.58 1001.82 1001.44 1000.82 1000.75 1000.95 1001.59 1001.69 1002.19 1002.56 1002.88 1002.79 1002.28 1001.70 1001.26 1001.05 1001.43 1002.23 1002.18 1002.87 1003.73 1004.09 1004.13 1003.89 1003.74 1003.99 1002.37 1001.50 1001.54 1001.88 1002.09 1002.22 1002.59 1003.16 1003.91
1017.52 1014.01 1012.05 1010.92 1011.01 1011.11 1010.52 1008.47 1005.79 1003.97 1002.45 1002.03 1001.99 1001.51 1000.83 1000.46 1000.87 1001.39 1001.76 1001.96 1002.00 1002.40 1002.54 1001.77 1000.98 1000.37 1000.71 1001.79 1002.75 1002.60 1003.06 1003.94 1004.17 1004.35 1004.08 1003.61 1002.83 1002.87 1003.06 1002.95 1003.00 1003.04 1003.19 1003.82 1004.81
1017.68 1014.00 1010.73 1009.50 1010.66 1010.76 1009.74 1007.31 1005.24 1003.70 1003.42 1003.14 1002.58 1001.62 1000.97 1000.37 1000.42 1000.69 1000.96 1001.26 1001.37 1001.38 1001.85 1002.13 1001.84 1001.35 1000.86 1001.73 1002.38 1002.69 1003.03 1003.47 1004.19 1005.13 1005.07 1004.25 1003.85 1004.63 1004.63 1004.29 1003.77 1003.74 1003.80 1004.26 1005.24
1016.99 1012.34 1009.44 1009.49 1010.48 1009.97 1008.23 1006.45 1004.96 1003.99 1003.65 1003.82 1003.45 1002.55 1001.54 1000.64 1000.50 1000.61 1000.84 1000.88 1001.03 1001.20 1001.42 1002.10 1002.71 1002.24 1001.50 1001.83 1002.59 1002.80 1003.47 1004.16 1004.64 1005.04 1005.48 1005.58 1005.31 1005.53 1005.71 1004.95 1003.99 1003.86 1003.89 1004.29 1005.76
1015.31 1011.29 1009.16 1009.56 1009.66 1008.47 1007.22 1006.06 1004.84 1003.60 1003.81 1004.39 1004.09 1003.36 1002.36 1001.78 1001.46 1001.41 1001.08 1002.02 1002.47 1002.39 1002.43 1002.69 1002.87 1002.86 1002.58 1002.56 1002.79 1003.09 1003.45 1004.21 1005.35 1005.93 1006.08 1006.28 1006.05 1007.23 1005.55 1004.60 1004.55 1004.61 1004.15 1005.25 1006.29
1014.91 1010.64 1008.88 1009.48 1008.44 1007.42 1006.23 1005.31 1004.46 1003.96 1003.96 1004.44 1004.46 1003.98 1003.37 1003.00 1002.75 1002.48 1002.27 1002.86 1003.45 1003.73 1004.87 1004.99 1003.83 1003.80 1003.32 1003.04 1002.84 1003.97 1005.65 1006.54 1007.43 1006.81 1006.49 1006.73 1006.63 1006.61 1006.17 1007.64 1005.79 1005.34 1005.36 1006.24 1007.41
1015.61 1010.54 1008.76 1008.85 1008.38 1007.65 1006.61 1005.19 1004.69 1004.88 1004.75 1004.50 1004.46 1004.29 1004.02 1003.86 1003.77 1003.65 1003.21 1003.36 1003.99 1004.54 1005.62 1005.94 1005.41 1004.80 1004.02 1003.51 1004.04 1005.16 1005.73 1006.61 1008.69 1009.41 1009.48 1008.17 1007.16 1007.57 1007.47 1007.92 1006.91 1007.15 1006.47 1007.55 1008.62
1015.44 1010.88 1008.99 1007.70 1007.49 1007.35 1006.93 1006.12 1004.96 1004.75 1005.27 1005.27 1004.88 1004.86 1004.43 1004.31 1004.05 1003.95 1003.97 1003.62 1003.71 1004.92 1005.61 1006.15 1006.15 1005.76 1004.91 1004.55 1004.43 1004.43 1005.42 1007.10 1007.99 1008.90 1009.77 1009.81 1009.61 1008.47 1006.14 1006.18 1006.81 1008.85 1007.85 1008.63 1009.89
1015.08 1011.73 1010.36 1009.16 1008.65 1007.91 1007.09 1006.61 1006.01 1005.18 1004.79 1005.34 1005.43 1005.28 1005.08 1004.90 1004.70 1004.29 1003.83 1003.91 1003.99 1004.93 1005.25 1005.98 1006.67 1006.71 1005.92 1005.29 1004.68 1004.12 1004.62 1006.33 1007.10 1008.40 1008.89 1009.71 1009.98 1008.79 1006.13 1006.10 1006.82 1007.56 1008.43 1009.57 1010.94
1014.47 1013.17 1012.76 1010.39 1008.77 1008.31 1007.42 1006.74 1006.43 1005.98 1005.25 1005.03 1005.45 1005.90 1005.55 1005.42 1005.49 1005.59 1005.24 1005.25 1005.23 1005.51 1005.89 1006.42 1006.80 1006.95 1006.39 1005.93 1004.91 1004.01 1004.29 1004.78 1005.62 1006.63 1007.97 1009.56 1008.91 1008.69 1008.71 1007.58 1007.13 1008.33 1009.11 1010.57 1012.12
Wind_Speed
19 19 18 18 17 17 16 15 14 12 11 10 9 8 9 10 15 7 12 9 9 7 1 10 14 13 13 15 17 14 11 16 24 17 5 14 9 20 31 9 17 20 17 19 15
20 20 19 19 19 18 17 16 15 14 12 10 10 8 8 8 12 17 8 10 9 6 9 13 12 13 13 16 16 12 14 24 22 6 13 12 4 10 5 10 15 15 17 17 15
20 20 20 20 20 19 18 17 16 15 12 11 9 9 8 10 13 16 9 11 8 4 12 18 15 14 14 17 16 16 17 20 9 13 11 26 16 11 8 10 17 18 14 15 12
21 21 21 21 21 20 19 18 18 16 13 11 9 8 6 8 4 8 9 9 7 7 13 16 12 14 16 18 14 18 18 13 15 6 11 9 11 7 4 12 10 17 14 12 10
21 22 22 22 22 21 20 19 19 16 13 11 10 7 7 9 16 12 10 9 8 10 16 14 12 13 17 15 15 9 19 4 13 4 13 5 3 4 5 13 18 16 13 11 10
21 22 22 23 23 22 21 19 17 15 12 9 7 5 8 13 14 15 14 12 12 15 17 12 12 11 15 17 6 11 15 5 5 9 12 5 5 9 9 10 15 14 11 10 9
22 22 23 23 24 23 22 20 17 15 11 6 3 7 12 16 9 14 14 13 14 13 12 9 12 10 10 9 12 11 4 10 8 10 6 5 8 12 9 10 12 12 10 11 10
23 23 24 24 24 24 23 21 19 14 8 6 5 7 9 16 8 14 13 13 9 8 10 12 6 15 14 14 9 8 12 12 11 12 5 7 14 14 11 12 11 13 12 11 11
24 24 25 26 25 25 24 22 17 9 7 5 6 9 16 9 11 13 14 13 9 8 8 6 9 13 15 12 9 13 12 16 14 15 9 11 15 16 18 13 12 14 13 12 11
24 25 26 26 26 25 27 13 2 8 6 10 12 10 17 13 13 13 14 13 8 7 9 9 8 12 13 12 13 16 15 16 16 19 14 14 14 17 15 15 14 15 14 14 13
24 26 26 28 28 22 15 4 6 7 13 14 11 13 3 14 13 15 14 13 11 9 12 14 11 13 15 15 19 20 15 14 15 17 19 15 17 12 14 17 16 14 14 13 15
24 26 27 29 30 27 7 8 7 9 10 18 22 19 15 6 8 11 14 12 14 14 14 13 13 16 17 15 17 18 18 15 10 7 13 9 14 17 16 16 17 17 15 14 13
24 25 27 30 33 12 10 6 8 11 8 15 22 22 18 11 14 15 17 16 15 15 16 16 19 14 12 8 9 12 14 14 16 7 6 7 15 18 18 19 18 18 14 14 14
24 25 25 31 7 12 9 6 8 7 7 15 18 16 21 16 17 15 18 15 15 18 15 15 14 9 7 11 12 13 13 16 14 12 10 16 13 15 18 18 17 17 14 14 12
23 26 25 11 12 8 8 9 8 6 7 11 13 3 14 21 3 20 17 17 19 15 10 14 12 8 9 13 14 13 10 9 7 10 14 16 11 11 11 14 18 14 14 13 13
22 24 24 8 8 14 10 9 6 7 8 8 8 10 15 18 21 13 15 16 14 14 17 15 15 8 10 13 12 10 2 9 6 9 12 16 15 15 13 12 10 14 11 11 12
25 29 16 9 9 12 9 7 7 9 4 10 9 13 16 15 19 16 18 18 15 12 15 17 15 12 10 13 12 9 3 7 10 11 14 18 18 14 6 8 11 9 5 6 4
28 32 11 10 9 11 7 7 11 10 20 2 2 11 15 15 19 15 14 16 19 19 13 13 14 21 15 13 12 13 12 8 6 10 3 8 7 9 9 7 5 3 1 3 4
30 9 9 11 12 5 7 11 9 16 11 3 6 11 13 16 13 20 19 17 19 18 16 14 15 8 16 11 15 15 12 15 16 15 13 12 16 10 7 5 3 4 5 7 5
12 10 11 8 5 6 8 16 17 19 2 5 9 9 16 16 16 14 19 18 17 17 18 14 13 15 7 7 12 15 13 7 6 6 14 13 16 2 7 16 4 5 6 7 9
6 6 8 5 6 7 11 15 18 23 1 7 11 17 14 16 10 14 19 12 17 16 9 11 11 13 10 8 12 13 11 14 11 9 9 9 2 9 15 21 8 7 10 12 10
7 6 9 5 7 8 12 18 18 17 11 7 9 16 13 12 7 10 3 8 13 11 11 5 7 12 17 15 12 14 16 12 9 12 10 9 9 11 15 1 6 4 7 16 17
6 8 8 5 7 11 16 21 9 11 5 8 11 12 12 11 5 9 11 9 5 4 7 10 5 12 16 14 13 8 7 8 14 11 15 3 6 4 9 24 16 4 15 16 16
7 5 8 8 11 14 13 14 12 8 14 10 12 14 12 12 9 8 12 10 11 6 7 5 6 12 10 16 4 4 11 17 12 8 12 16 16 10 15 16 8 19 10 15 14
7 6 4 4 8 13 14 13 13 13 8 14 7 14 11 11 13 13 12 13 8 13 5 3 10 15 19 18 18 17 9 11 10 19 7 20 23 25 10 11 16 19 7 13 15
7 5 8 10 13 8 6 12 14 17 12 11 13 16 14 12 12 14 14 5 15 14 8 8 7 14 18 21 22 28 19 14 11 8 9 13 22 24 3 13 13 12 13 12 14
7 5 5 9 8 11 11 12 14 15 13 11 2 13 14 6 9 11 7 8 4 4 3 5 8 10 15 19 22 22 17 17 19 12 10 13 21 13 14 6 11 10 11 15 14
Wind_Direction
357 354 351 348 348 346 346 342 335 325 315 302 298 301 307 311 297 240 253 239 192 155 232 254 218 239 233 255 247 248 261 260 259 269 166 129 179 118 173 137 64 80 133 122 144
353 351 348 347 346 344 343 339 336 327 314 304 302 300 305 320 278 266 244 117 135 153 214 223 219 224 232 231 242 225 238 252 280 350 115 60 218 119 175 112 106 94 114 135 154
352 349 346 344 344 341 341 338 334 326 316 306 299 299 305 300 276 243 147 137 129 177 253 269 266 224 231 237 231 224 252 270 337 36 111 154 217 123 216 181 144 136 139 148 162
349 349 344 342 341 339 338 336 333 327 316 303 295 295 308 254 311 127 147 124 121 263 261 259 245 249 242 243 241 234 244 282 316 338 300 152 111 137 208 88 116 128 147 154 170
344 343 341 339 337 337 336 332 327 323 311 298 294 295 275 230 252 138 147 132 192 228 246 244 226 233 240 248 237 253 267 266 283 289 262 131 111 115 168 96 109 119 148 158 196
343 340 339 336 335 333 332 328 322 317 301 284 289 292 248 260 102 151 172 177 234 218 248 262 247 249 279 277 216 228 246 249 241 221 244 190 145 229 121 116 121 135 163 179 168
341 338 336 334 331 329 328 324 318 310 289 251 241 261 265 246 140 167 181 196 219 247 277 258 308 307 237 271 254 266 253 242 224 228 200 267 202 200 130 149 152 158 182 189 158
340 337 335 331 329 326 325 319 313 302 281 235 197 247 262 227 220 172 197 214 240 253 285 320 310 282 281 274 243 247 239 219 210 235 184 179 247 186 196 159 179 180 187 196 171
339 336 333 329 327 325 322 313 297 288 262 216 222 220 257 141 212 210 206 226 210 236 252 296 274 263 261 260 234 229 241 233 217 196 197 204 249 278 178 166 195 187 201 201 189
338 335 332 328 325 326 320 286 277 300 220 222 259 261 243 211 199 213 207 227 226 226 235 226 238 244 241 236 236 212 211 252 222 178 197 228 226 263 187 171 197 204 208 199 199
336 334 331 327 323 327 332 239 208 201 228 233 205 227 112 225 165 207 200 206 239 230 232 213 230 233 236 239 255 276 265 227 260 191 193 209 247 238 198 186 197 214 209 211 195
335 333 330 327 321 318 271 266 42 334 290 238 244 248 256 179 195 215 206 209 222 233 216 251 226 250 248 245 237 262 281 285 269 256 185 209 235 245 236 209 200 207 226 207 205
333 332 330 327 319 295 276 5 326 325 268 264 230 236 226 200 221 206 212 207 226 227 247 234 241 209 247 251 272 268 267 266 274 216 180 258 275 270 239 244 202 202 218 220 203
331 328 332 334 302 334 287 12 307 352 272 247 208 215 209 200 231 236 210 213 229 238 240 256 238 242 243 251 257 252 245 252 275 278 246 197 246 249 238 237 231 193 207 228 219
328 324 328 325 306 296 358 310 334 268 273 119 172 165 205 195 252 204 198 216 236 237 248 250 228 232 245 251 248 255 358 321 257 286 293 279 273 267 280 263 221 183 206 224 230
324 318 331 312 216 260 321 317 267 233 241 162 157 199 213 198 223 185 207 207 235 256 265 251 283 268 232 250 238 266 38 284 281 283 268 262 262 273 274 3 179 196 196 221 236
322 312 311 290 266 334 326 257 224 239 176 161 201 201 210 191 214 225 189 200 221 221 244 250 243 238 244 268 237 232 207 246 235 230 248 247 239 238 61 56 27 40 91 76 51
321 306 265 229 266 255 283 233 240 240 238 46 320 227 205 199 207 189 199 216 213 242 263 226 231 211 202 226 241 205 238 239 265 281 291 326 289 269 94 88 100 91 48 109 90
315 293 257 230 224 275 240 223 227 255 325 46 234 252 245 224 194 219 203 213 227 208 251 264 270 322 200 181 238 253 203 238 269 287 286 267 241 90 154 137 155 157 158 124 133
319 291 248 200 141 230 232 245 248 260 345 344 260 260 243 213 220 207 218 214 236 230 201 245 278 277 179 182 216 247 278 233 233 254 270 280 278 112 42 317 184 185 163 158 164
266 263 109 173 167 226 232 236 241 261 214 263 277 272 279 269 242 208 236 219 206 231 213 204 245 273 249 186 241 234 241 270 280 248 229 262 304 135 175 218 183 197 192 190 96
285 256 125 185 221 227 238 240 265 295 161 245 270 284 281 275 261 265 274 55 3 353 310 261 234 240 246 237 242 243 263 217 253 247 257 209 237 342 344 221 142 234 78 109 133
272 270 154 199 240 230 231 247 285 254 207 219 241 251 275 281 307 277 292 130 135 334 27 353 228 245 256 267 258 214 352 326 352 302 271 266 280 296 44 327 351 239 88 91 101
275 254 193 197 256 288 293 293 220 218 270 255 255 246 244 249 246 261 258 169 139 108 86 19 291 276 250 267 311 285 333 320 318 306 326 301 261 168 175 214 29 329 91 107 103
251 252 16 231 221 232 246 273 293 229 200 272 256 261 250 241 232 237 244 273 178 141 154 211 271 270 273 276 267 282 193 191 214 270 305 322 317 316 192 170 131 218 124 114 104
292 330 346 281 285 285 276 260 258 275 211 204 241 262 242 244 245 247 256 246 236 180 175 192 250 278 277 276 278 273 267 171 186 232 292 320 322 289 91 137 140 149 132 120 102
280 305 270 290 262 249 252 253 244 247 265 276 131 309 268 236 344 11 6 355 322 313 191 282 285 263 268 273 274 265 262 278 296 238 187 238 250 167 195 159 141 144 132 112 106